Location: Boca de Tacagua
(10.5333°N, 66.9833°W)
Time: 14:01:30
(UTC+00:00)

XW-2D - Visible Passes

Search period start: 01 April 2023 00:00
Search period end: 11 April 2023 00:00
Orbit: 479 x 497 km, 97.5° (Epoch: 01 April)

Date Brightness Start Highest point End Pass type
(mag) Time Alt. Az. Time Alt. Az. Time Alt. Az.
01 Apr ? 09:57:47 10° NE 10:00:52 27° E 10:03:58 10° SSE visible
02 Apr ? 09:36:16 10° ENE 09:37:36 12° E 09:38:56 10° ESE visible
02 Apr ? 23:02:38 10° SW 23:04:47 15° W 23:06:54 10° WNW visible
05 Apr ? 09:57:52 10° NE 10:00:57 27° E 10:04:03 10° SSE visible
06 Apr ? 09:36:14 10° ENE 09:37:32 12° E 09:38:49 10° ESE visible
06 Apr ? 23:02:27 10° SW 23:04:36 15° W 23:06:45 10° WNW visible
10 Apr ? 09:35:41 10° E 09:36:48 11° E 09:37:56 10° ESE visible
10 Apr ? 23:01:33 10° SW 23:03:47 16° W 23:06:01 10° WNW visible
